owner,sensor,date,latitude,longitude,air_pressure(mBar),qcFlag 
TABS,ioos:station:wmo:42045:1,2012-03-01T00:00:00Z,26.2168,-96.4998,1013.69,11111222 
TABS,ioos:station:wmo:42045:1,2012-03-01T00:30:00Z,26.2168,-96.4998,1013.96,11111222 
TABS,ioos:station:wmo:42045:1,2012-03-01T01:00:00Z,26.2168,-96.4998,1014.02,11111222 
TABS,ioos:station:wmo:42045:1,2012-03-01T01:30:00Z,26.2168,-96.4998,1013.93,11111222 
TABS,ioos:station:wmo:42045:1,2012-03-01T02:00:00Z,26.2168,-96.4998,1014.48,11111222 
TABS,ioos:station:wmo:42045:1,2012-03-01T02:30:00Z,26.2168,-96.4998,1014.27,11111222 
TABS,ioos:station:wmo:42045:1,2012-03-01T03:00:00Z,26.2168,-96.4998,1014.45,11111222 
TABS,ioos:station:wmo:42045:1,2012-03-01T03:30:00Z,26.2168,-96.4998,1014.56,11111222 
TABS,ioos:station:wmo:42045:1,2012-03-01T04:00:00Z,26.2168,-96.4998,1014.75,11111222 
TABS,ioos:station:wmo:42045:1,2012-03-01T04:30:00Z,26.2168,-96.4998,1015.1,11111222 
TABS,ioos:station:wmo:42045:1,2012-03-01T05:00:00Z,26.2168,-96.4998,1014.73,11111222 
TABS,ioos:station:wmo:42045:1,2012-03-01T05:30:00Z,26.2168,-96.4998,1014.06,11111222 
TABS,ioos:station:wmo:42045:1,2012-03-01T06:00:00Z,26.2168,-96.4998,1013.94,11111222 
TABS,ioos:station:wmo:42045:1,2012-03-01T06:30:00Z,26.2168,-96.4998,1014.35,11111222 
TABS,ioos:station:wmo:42045:1,2012-03-01T07:00:00Z,26.2168,-96.4998,1014.52,11111222 
TABS,ioos:station:wmo:42045:1,2012-03-01T07:30:00Z,26.2168,-96.4998,1014.26,11111222 
TABS,ioos:station:wmo:42045:1,2012-03-01T08:00:00Z,26.2168,-96.4998,1013.71,11111222 
TABS,ioos:station:wmo:42045:1,2012-03-01T08:30:00Z,26.2168,-96.4998,1013.3,11111222 
TABS,ioos:station:wmo:42045:1,2012-03-01T09:00:00Z,26.2168,-96.4998,1012.97,11111222 
TABS,ioos:station:wmo:42045:1,2012-03-01T09:30:00Z,26.2168,-96.4998,1012.82,11111222 
TABS,ioos:station:wmo:42045:1,2012-03-01T10:00:00Z,26.2168,-96.4998,1012.52,11111222 
TABS,ioos:station:wmo:42045:1,2012-03-01T10:30:00Z,26.2168,-96.4998,1012.18,11111222 
TABS,ioos:station:wmo:42045:1,2012-03-01T11:00:00Z,26.2168,-96.4998,1011.94,11111222 
TABS,ioos:station:wmo:42045:1,2012-03-01T11:30:00Z,26.2168,-96.4998,1012.32,11111222 
TABS,ioos:station:wmo:42045:1,2012-03-01T12:00:00Z,26.2168,-96.4998,1012.18,11111222 
TABS,ioos:station:wmo:42045:1,2012-03-01T12:30:00Z,26.2168,-96.4998,1012.33,11111222 
TABS,ioos:station:wmo:42045:1,2012-03-01T13:00:00Z,26.2168,-96.4998,1013.22,11111222 
TABS,ioos:station:wmo:42045:1,2012-03-01T13:30:00Z,26.2168,-96.4998,1013.81,11111222 
TABS,ioos:station:wmo:42045:1,2012-03-01T14:00:00Z,26.2168,-96.4998,1013.97,11111222 
TABS,ioos:station:wmo:42045:1,2012-03-01T14:30:00Z,26.2168,-96.4998,1014.15,11111222 
TABS,ioos:station:wmo:42045:1,2012-03-01T15:00:00Z,26.2168,-96.4998,1014.09,11111222 
TABS,ioos:station:wmo:42045:1,2012-03-01T15:30:00Z,26.2168,-96.4998,1014.65,11111222 
TABS,ioos:station:wmo:42045:1,2012-03-01T16:00:00Z,26.2168,-96.4998,1014.85,11111222 
TABS,ioos:station:wmo:42045:1,2012-03-01T16:30:00Z,26.2168,-96.4998,1014.83,11111222 
TABS,ioos:station:wmo:42045:1,2012-03-01T17:00:00Z,26.2168,-96.4998,1014.34,11111222 
TABS,ioos:station:wmo:42045:1,2012-03-01T17:30:00Z,26.2168,-96.4998,1013.95,11111222 
TABS,ioos:station:wmo:42045:1,2012-03-01T18:00:00Z,26.2168,-96.4998,1013.35,11111222 
TABS,ioos:station:wmo:42045:1,2012-03-01T18:30:00Z,26.2168,-96.4998,1012.59,11111222 
TABS,ioos:station:wmo:42045:1,2012-03-01T19:00:00Z,26.2168,-96.4998,1011.88,11111222 
TABS,ioos:station:wmo:42045:1,2012-03-01T19:30:00Z,26.2168,-96.4998,1011.18,11111222 
TABS,ioos:station:wmo:42045:1,2012-03-01T20:00:00Z,26.2168,-96.4998,1010.74,11111222 
TABS,ioos:station:wmo:42045:1,2012-03-01T20:30:00Z,26.2168,-96.4998,1010.27,11111222 
TABS,ioos:station:wmo:42045:1,2012-03-01T21:00:00Z,26.2168,-96.4998,1010.05,11111222 
TABS,ioos:station:wmo:42045:1,2012-03-01T21:30:00Z,26.2168,-96.4998,1009.44,11111222 
TABS,ioos:station:wmo:42045:1,2012-03-01T22:00:00Z,26.2168,-96.4998,1009.24,11111222 
TABS,ioos:station:wmo:42045:1,2012-03-01T22:30:00Z,26.2168,-96.4998,1009.04,11111222 
TABS,ioos:station:wmo:42045:1,2012-03-01T23:00:00Z,26.2168,-96.4998,1008.74,11111222 
TABS,ioos:station:wmo:42045:1,2012-03-01T23:30:00Z,26.2168,-96.4998,1008.64,11111222 
TABS,ioos:station:wmo:42045:1,2012-03-02T00:00:00Z,26.2168,-96.4998,1008.9,11111222 
TABS,ioos:station:wmo:42045:1,2012-03-02T00:30:00Z,26.2168,-96.4998,1008.85,11111222 
TABS,ioos:station:wmo:42045:1,2012-03-02T01:00:00Z,26.2168,-96.4998,1008.87,11111222 
TABS,ioos:station:wmo:42045:1,2012-03-02T01:30:00Z,26.2168,-96.4998,1008.84,11111222 
TABS,ioos:station:wmo:42045:1,2012-03-02T02:00:00Z,26.2168,-96.4998,1008.91,11111222 
TABS,ioos:station:wmo:42045:1,2012-03-02T02:30:00Z,26.2168,-96.4998,1009.24,11111222 
TABS,ioos:station:wmo:42045:1,2012-03-02T03:00:00Z,26.2168,-96.4998,1009.13,11111222 
TABS,ioos:station:wmo:42045:1,2012-03-02T03:30:00Z,26.2168,-96.4998,1009.28,11111222 
TABS,ioos:station:wmo:42045:1,2012-03-02T04:00:00Z,26.2168,-96.4998,1009.11,11111222 
TABS,ioos:station:wmo:42045:1,2012-03-02T04:30:00Z,26.2168,-96.4998,1008.91,11111222 
TABS,ioos:station:wmo:42045:1,2012-03-02T05:00:00Z,26.2168,-96.4998,1008.6,11111222 
TABS,ioos:station:wmo:42045:1,2012-03-02T09:00:00Z,26.2168,-96.4998,1006.14,11111222 
TABS,ioos:station:wmo:42045:1,2012-03-02T09:30:00Z,26.2168,-96.4998,1006.24,11111222 
TABS,ioos:station:wmo:42045:1,2012-03-02T10:00:00Z,26.2168,-96.4998,1006.6,11111222 
TABS,ioos:station:wmo:42045:1,2012-03-02T10:30:00Z,26.2168,-96.4998,1006.1,11111222 
TABS,ioos:station:wmo:42045:1,2012-03-02T11:00:00Z,26.2168,-96.4998,1005.27,11111222 
TABS,ioos:station:wmo:42045:1,2012-03-02T11:30:00Z,26.2168,-96.4998,1005.44,11111222 
TABS,ioos:station:wmo:42045:1,2012-03-02T12:00:00Z,26.2168,-96.4998,1005.77,11111222 
TABS,ioos:station:wmo:42045:1,2012-03-02T12:30:00Z,26.2168,-96.4998,1006.23,11111222 
TABS,ioos:station:wmo:42045:1,2012-03-02T13:00:00Z,26.2168,-96.4998,1006.26,11111222 
TABS,ioos:station:wmo:42045:1,2012-03-02T15:00:00Z,26.2168,-96.4998,1006.8,11111222 
TABS,ioos:station:wmo:42045:1,2012-03-02T15:30:00Z,26.2168,-96.4998,1006.65,11111222 
TABS,ioos:station:wmo:42045:1,2012-03-02T16:00:00Z,26.2168,-96.4998,1006.83,11111222 
TABS,ioos:station:wmo:42045:1,2012-03-02T16:30:00Z,26.2168,-96.4998,1006.63,11111222 
TABS,ioos:station:wmo:42045:1,2012-03-02T17:00:00Z,26.2168,-96.4998,1006.59,11111222 
TABS,ioos:station:wmo:42045:1,2012-03-02T17:30:00Z,26.2168,-96.4998,1006.48,11111222 
TABS,ioos:station:wmo:42045:1,2012-03-02T18:00:00Z,26.2168,-96.4998,1006.11,11111222 
TABS,ioos:station:wmo:42045:1,2012-03-02T18:30:00Z,26.2168,-96.4998,1005.69,11111222 
TABS,ioos:station:wmo:42045:1,2012-03-02T19:00:00Z,26.2168,-96.4998,1005.44,11111222 
TABS,ioos:station:wmo:42045:1,2012-03-02T19:30:00Z,26.2168,-96.4998,1005.1,11111222 
TABS,ioos:station:wmo:42045:1,2012-03-02T20:00:00Z,26.2168,-96.4998,1004.81,11111222 
TABS,ioos:station:wmo:42045:1,2012-03-02T20:30:00Z,26.2168,-96.4998,1004.89,11111222 
TABS,ioos:station:wmo:42045:1,2012-03-02T21:00:00Z,26.2168,-96.4998,1004.5,11111222 
TABS,ioos:station:wmo:42045:1,2012-03-02T21:30:00Z,26.2168,-96.4998,1004.08,11111222 
TABS,ioos:station:wmo:42045:1,2012-03-02T22:00:00Z,26.2168,-96.4998,1004.13,11111222 
TABS,ioos:station:wmo:42045:1,2012-03-02T22:30:00Z,26.2168,-96.4998,1004.21,11111222 
TABS,ioos:station:wmo:42045:1,2012-03-02T23:00:00Z,26.2168,-96.4998,1004.21,11111222 
TABS,ioos:station:wmo:42045:1,2012-03-02T23:30:00Z,26.2168,-96.4998,1004.21,11111222 
TABS,ioos:station:wmo:42045:1,2012-03-03T00:00:00Z,26.2168,-96.4998,1004.44,11111222 
TABS,ioos:station:wmo:42045:1,2012-03-03T00:30:00Z,26.2168,-96.4998,1004.6,11111222 
TABS,ioos:station:wmo:42045:1,2012-03-03T01:00:00Z,26.2168,-96.4998,1005.07,11111222 
TABS,ioos:station:wmo:42045:1,2012-03-03T01:30:00Z,26.2168,-96.4998,1005.05,11111222 
TABS,ioos:station:wmo:42045:1,2012-03-03T02:00:00Z,26.2168,-96.4998,1005.22,11111222 
TABS,ioos:station:wmo:42045:1,2012-03-03T02:30:00Z,26.2168,-96.4998,1005.62,11111222 
TABS,ioos:station:wmo:42045:1,2012-03-03T03:00:00Z,26.2168,-96.4998,1005.72,11111222 
TABS,ioos:station:wmo:42045:1,2012-03-03T03:30:00Z,26.2168,-96.4998,1005.33,11111222 
TABS,ioos:station:wmo:42045:1,2012-03-03T04:00:00Z,26.2168,-96.4998,1005.57,11111222 
TABS,ioos:station:wmo:42045:1,2012-03-03T04:30:00Z,26.2168,-96.4998,1005.55,11111222 
TABS,ioos:station:wmo:42045:1,2012-03-03T05:00:00Z,26.2168,-96.4998,1005.8,11111222 
TABS,ioos:station:wmo:42045:1,2012-03-03T05:30:00Z,26.2168,-96.4998,1005.22,11111222 
TABS,ioos:station:wmo:42045:1,2012-03-03T06:00:00Z,26.2168,-96.4998,1005.04,11111222 
TABS,ioos:station:wmo:42045:1,2012-03-03T06:30:00Z,26.2168,-96.4998,1005.22,11111222 
TABS,ioos:station:wmo:42045:1,2012-03-03T07:00:00Z,26.2168,-96.4998,1004.98,11111222 
TABS,ioos:station:wmo:42045:1,2012-03-03T07:30:00Z,26.2168,-96.4998,1004.92,11111222 
TABS,ioos:station:wmo:42045:1,2012-03-03T15:00:00Z,26.2168,-96.4998,1010.03,11111222 
TABS,ioos:station:wmo:42045:1,2012-03-03T15:30:00Z,26.2168,-96.4998,1010.67,11111222 
TABS,ioos:station:wmo:42045:1,2012-03-03T16:00:00Z,26.2168,-96.4998,1012.05,11111222 
TABS,ioos:station:wmo:42045:1,2012-03-03T16:30:00Z,26.2168,-96.4998,1012.33,11111222 
TABS,ioos:station:wmo:42045:1,2012-03-03T17:00:00Z,26.2168,-96.4998,1012.94,11111222 
TABS,ioos:station:wmo:42045:1,2012-03-03T17:30:00Z,26.2168,-96.4998,1013.32,11111222 
TABS,ioos:station:wmo:42045:1,2012-03-03T18:00:00Z,26.2168,-96.4998,1013.5,11111222 
TABS,ioos:station:wmo:42045:1,2012-03-03T18:30:00Z,26.2168,-96.4998,1013.77,11111222 
TABS,ioos:station:wmo:42045:1,2012-03-03T19:00:00Z,26.2168,-96.4998,1014.04,11111222 
TABS,ioos:station:wmo:42045:1,2012-03-03T19:30:00Z,26.2168,-96.4998,1014.3,11111222 
TABS,ioos:station:wmo:42045:1,2012-03-03T20:00:00Z,26.2168,-96.4998,1014.16,11111222 
TABS,ioos:station:wmo:42045:1,2012-03-03T20:30:00Z,26.2168,-96.4998,1014.57,11111222 
TABS,ioos:station:wmo:42045:1,2012-03-03T21:00:00Z,26.2168,-96.4998,1014.43,11111222 
TABS,ioos:station:wmo:42045:1,2012-03-03T21:30:00Z,26.2168,-96.4998,1015.09,11111222 
TABS,ioos:station:wmo:42045:1,2012-03-03T22:00:00Z,26.2168,-96.4998,1015.09,11111222 
TABS,ioos:station:wmo:42045:1,2012-03-03T22:30:00Z,26.2168,-96.4998,1015.47,11111222 
TABS,ioos:station:wmo:42045:1,2012-03-03T23:00:00Z,26.2168,-96.4998,1015.94,11111222 
TABS,ioos:station:wmo:42045:1,2012-03-03T23:30:00Z,26.2168,-96.4998,1016.67,11111222 
TABS,ioos:station:wmo:42045:1,2012-03-04T00:00:00Z,26.2168,-96.4998,1016.5,11111222 
TABS,ioos:station:wmo:42045:1,2012-03-04T00:30:00Z,26.2168,-96.4998,1017.02,11111222 
TABS,ioos:station:wmo:42045:1,2012-03-04T01:00:00Z,26.2168,-96.4998,1017.7,11111222 
TABS,ioos:station:wmo:42045:1,2012-03-04T01:30:00Z,26.2168,-96.4998,1017.98,11111222 
TABS,ioos:station:wmo:42045:1,2012-03-04T02:00:00Z,26.2168,-96.4998,1019.56,11111222 
TABS,ioos:station:wmo:42045:1,2012-03-04T02:30:00Z,26.2168,-96.4998,1020.46,11111222 
TABS,ioos:station:wmo:42045:1,2012-03-04T03:00:00Z,26.2168,-96.4998,1020.4,11111222 
TABS,ioos:station:wmo:42045:1,2012-03-04T03:30:00Z,26.2168,-96.4998,1021.39,11111222 
TABS,ioos:station:wmo:42045:1,2012-03-04T04:00:00Z,26.2168,-96.4998,1021.83,11111222 
TABS,ioos:station:wmo:42045:1,2012-03-04T04:30:00Z,26.2168,-96.4998,1022.2,11111222 
TABS,ioos:station:wmo:42045:1,2012-03-04T05:00:00Z,26.2168,-96.4998,1022.37,11111222 
TABS,ioos:station:wmo:42045:1,2012-03-04T05:30:00Z,26.2168,-96.4998,1023.09,11111222 
TABS,ioos:station:wmo:42045:1,2012-03-04T06:00:00Z,26.2168,-96.4998,1022.81,11111222 
TABS,ioos:station:wmo:42045:1,2012-03-04T06:30:00Z,26.2168,-96.4998,1022.7,11111222 
TABS,ioos:station:wmo:42045:1,2012-03-04T07:00:00Z,26.2168,-96.4998,1022.58,11111222 
TABS,ioos:station:wmo:42045:1,2012-03-04T07:30:00Z,26.2168,-96.4998,1022.47,11111222 
TABS,ioos:station:wmo:42045:1,2012-03-04T08:00:00Z,26.2168,-96.4998,1022.67,11111222 
TABS,ioos:station:wmo:42045:1,2012-03-04T08:30:00Z,26.2168,-96.4998,1022.81,11111222 
TABS,ioos:station:wmo:42045:1,2012-03-04T09:00:00Z,26.2168,-96.4998,1022.81,11111222 
TABS,ioos:station:wmo:42045:1,2012-03-04T09:30:00Z,26.2168,-96.4998,1022.8,11111222 
TABS,ioos:station:wmo:42045:1,2012-03-04T10:00:00Z,26.2168,-96.4998,1022.64,11111222 
TABS,ioos:station:wmo:42045:1,2012-03-04T10:30:00Z,26.2168,-96.4998,1022.74,11111222 
TABS,ioos:station:wmo:42045:1,2012-03-04T11:00:00Z,26.2168,-96.4998,1023.09,11111222 
TABS,ioos:station:wmo:42045:1,2012-03-04T11:30:00Z,26.2168,-96.4998,1023.61,11111222 
TABS,ioos:station:wmo:42045:1,2012-03-04T12:00:00Z,26.2168,-96.4998,1023.89,11111222 
TABS,ioos:station:wmo:42045:1,2012-03-04T12:30:00Z,26.2168,-96.4998,1024.34,11111222 
TABS,ioos:station:wmo:42045:1,2012-03-04T13:00:00Z,26.2168,-96.4998,1024.74,11111222 
TABS,ioos:station:wmo:42045:1,2012-03-04T13:30:00Z,26.2168,-96.4998,1025.19,11111222 
TABS,ioos:station:wmo:42045:1,2012-03-04T14:00:00Z,26.2168,-96.4998,1025.7,11111222 
TABS,ioos:station:wmo:42045:1,2012-03-04T14:30:00Z,26.2168,-96.4998,1026.0,11111222 
TABS,ioos:station:wmo:42045:1,2012-03-04T15:00:00Z,26.2168,-96.4998,1026.44,11111222 
TABS,ioos:station:wmo:42045:1,2012-03-04T16:30:00Z,26.2168,-96.4998,1027.09,11111222 
TABS,ioos:station:wmo:42045:1,2012-03-04T17:00:00Z,26.2168,-96.4998,1027.04,11111222 
TABS,ioos:station:wmo:42045:1,2012-03-04T17:30:00Z,26.2168,-96.4998,1026.84,11111222 
TABS,ioos:station:wmo:42045:1,2012-03-04T18:00:00Z,26.2168,-96.4998,1026.49,11111222 
TABS,ioos:station:wmo:42045:1,2012-03-04T18:30:00Z,26.2168,-96.4998,1026.27,11111222 
TABS,ioos:station:wmo:42045:1,2012-03-04T19:00:00Z,26.2168,-96.4998,1025.67,11111222 
TABS,ioos:station:wmo:42045:1,2012-03-04T19:30:00Z,26.2168,-96.4998,1025.59,11111222 
TABS,ioos:station:wmo:42045:1,2012-03-04T20:00:00Z,26.2168,-96.4998,1025.19,11111222 
TABS,ioos:station:wmo:42045:1,2012-03-04T20:30:00Z,26.2168,-96.4998,1024.5,11111222 
TABS,ioos:station:wmo:42045:1,2012-03-04T21:00:00Z,26.2168,-96.4998,1024.46,11111222 
TABS,ioos:station:wmo:42045:1,2012-03-04T21:30:00Z,26.2168,-96.4998,1024.34,11111222 
TABS,ioos:station:wmo:42045:1,2012-03-04T22:00:00Z,26.2168,-96.4998,1024.33,11111222 
TABS,ioos:station:wmo:42045:1,2012-03-04T22:30:00Z,26.2168,-96.4998,1024.16,11111222 
TABS,ioos:station:wmo:42045:1,2012-03-04T23:00:00Z,26.2168,-96.4998,1024.12,11111222 
TABS,ioos:station:wmo:42045:1,2012-03-04T23:30:00Z,26.2168,-96.4998,1024.1,11111222 
TABS,ioos:station:wmo:42045:1,2012-03-05T00:00:00Z,26.2168,-96.4998,1023.73,11111222 
TABS,ioos:station:wmo:42045:1,2012-03-05T00:30:00Z,26.2168,-96.4998,1023.93,11111222 
TABS,ioos:station:wmo:42045:1,2012-03-05T01:00:00Z,26.2168,-96.4998,1023.8,11111222 
TABS,ioos:station:wmo:42045:1,2012-03-05T01:30:00Z,26.2168,-96.4998,1024.09,11111222 
TABS,ioos:station:wmo:42045:1,2012-03-05T02:00:00Z,26.2168,-96.4998,1024.33,11111222 
TABS,ioos:station:wmo:42045:1,2012-03-05T02:30:00Z,26.2168,-96.4998,1024.22,11111222 
TABS,ioos:station:wmo:42045:1,2012-03-05T03:00:00Z,26.2168,-96.4998,1024.54,11111222 
TABS,ioos:station:wmo:42045:1,2012-03-05T03:30:00Z,26.2168,-96.4998,1024.42,11111222 
TABS,ioos:station:wmo:42045:1,2012-03-05T04:00:00Z,26.2168,-96.4998,1024.65,11111222 
TABS,ioos:station:wmo:42045:1,2012-03-05T04:30:00Z,26.2168,-96.4998,1024.69,11111222 
TABS,ioos:station:wmo:42045:1,2012-03-05T05:00:00Z,26.2168,-96.4998,1024.95,11111222 
TABS,ioos:station:wmo:42045:1,2012-03-05T05:30:00Z,26.2168,-96.4998,1024.73,11111222 
TABS,ioos:station:wmo:42045:1,2012-03-05T06:00:00Z,26.2168,-96.4998,1024.98,11111222 
TABS,ioos:station:wmo:42045:1,2012-03-05T06:30:00Z,26.2168,-96.4998,1024.67,11111222 
TABS,ioos:station:wmo:42045:1,2012-03-05T07:00:00Z,26.2168,-96.4998,1024.27,11111222 
TABS,ioos:station:wmo:42045:1,2012-03-05T07:30:00Z,26.2168,-96.4998,1024.17,11111222 
TABS,ioos:station:wmo:42045:1,2012-03-05T08:00:00Z,26.2168,-96.4998,1023.87,11111222 
TABS,ioos:station:wmo:42045:1,2012-03-05T09:00:00Z,26.2168,-96.4998,1023.72,11111222 
TABS,ioos:station:wmo:42045:1,2012-03-05T09:30:00Z,26.2168,-96.4998,1023.74,11111222 
TABS,ioos:station:wmo:42045:1,2012-03-05T10:00:00Z,26.2168,-96.4998,1023.81,11111222 
TABS,ioos:station:wmo:42045:1,2012-03-05T10:30:00Z,26.2168,-96.4998,1024.07,11111222 
TABS,ioos:station:wmo:42045:1,2012-03-05T11:00:00Z,26.2168,-96.4998,1024.52,11111222 
TABS,ioos:station:wmo:42045:1,2012-03-05T11:30:00Z,26.2168,-96.4998,1024.89,11111222 
TABS,ioos:station:wmo:42045:1,2012-03-05T12:00:00Z,26.2168,-96.4998,1025.02,11111222 
TABS,ioos:station:wmo:42045:1,2012-03-05T12:30:00Z,26.2168,-96.4998,1025.33,11111222 
TABS,ioos:station:wmo:42045:1,2012-03-05T13:00:00Z,26.2168,-96.4998,1025.94,11111222 
TABS,ioos:station:wmo:42045:1,2012-03-05T13:30:00Z,26.2168,-96.4998,1026.19,11111222 
TABS,ioos:station:wmo:42045:1,2012-03-05T14:00:00Z,26.2168,-96.4998,1026.62,11111222 
TABS,ioos:station:wmo:42045:1,2012-03-05T14:30:00Z,26.2168,-96.4998,1026.98,11111222 
TABS,ioos:station:wmo:42045:1,2012-03-05T15:00:00Z,26.2168,-96.4998,1027.42,11111222 
TABS,ioos:station:wmo:42045:1,2012-03-05T15:30:00Z,26.2168,-96.4998,1027.67,11111222 
TABS,ioos:station:wmo:42045:1,2012-03-05T16:00:00Z,26.2168,-96.4998,1027.92,11111222 
TABS,ioos:station:wmo:42045:1,2012-03-05T16:30:00Z,26.2168,-96.4998,1028.14,11111222 
TABS,ioos:station:wmo:42045:1,2012-03-05T17:00:00Z,26.2168,-96.4998,1028.12,11111222 
TABS,ioos:station:wmo:42045:1,2012-03-05T17:30:00Z,26.2168,-96.4998,1027.95,11111222 
TABS,ioos:station:wmo:42045:1,2012-03-05T18:00:00Z,26.2168,-96.4998,1027.82,11111222 
TABS,ioos:station:wmo:42045:1,2012-03-05T18:30:00Z,26.2168,-96.4998,1027.57,11111222 
TABS,ioos:station:wmo:42045:1,2012-03-05T19:00:00Z,26.2168,-96.4998,1027.23,11111222 
TABS,ioos:station:wmo:42045:1,2012-03-05T19:30:00Z,26.2168,-96.4998,1026.77,11111222 
TABS,ioos:station:wmo:42045:1,2012-03-05T20:00:00Z,26.2168,-96.4998,1026.26,11111222 
TABS,ioos:station:wmo:42045:1,2012-03-05T20:30:00Z,26.2168,-96.4998,1025.84,11111222 
TABS,ioos:station:wmo:42045:1,2012-03-05T21:00:00Z,26.2168,-96.4998,1025.61,11111222 
TABS,ioos:station:wmo:42045:1,2012-03-05T21:30:00Z,26.2168,-96.4998,1025.43,11111222 
TABS,ioos:station:wmo:42045:1,2012-03-05T22:00:00Z,26.2168,-96.4998,1025.23,11111222 
TABS,ioos:station:wmo:42045:1,2012-03-05T22:30:00Z,26.2168,-96.4998,1025.23,11111222 
TABS,ioos:station:wmo:42045:1,2012-03-05T23:00:00Z,26.2168,-96.4998,1024.89,11111222 
TABS,ioos:station:wmo:42045:1,2012-03-05T23:30:00Z,26.2168,-96.4998,1024.9,11111222 
TABS,ioos:station:wmo:42045:1,2012-03-06T00:00:00Z,26.2168,-96.4998,1024.8,11111222 
TABS,ioos:station:wmo:42045:1,2012-03-06T00:30:00Z,26.2168,-96.4998,1025.07,11111222 
TABS,ioos:station:wmo:42045:1,2012-03-06T01:00:00Z,26.2168,-96.4998,1025.11,11111222 
TABS,ioos:station:wmo:42045:1,2012-03-06T01:30:00Z,26.2168,-96.4998,1025.29,11111222 
TABS,ioos:station:wmo:42045:1,2012-03-06T02:00:00Z,26.2168,-96.4998,1025.6,11111222 
TABS,ioos:station:wmo:42045:1,2012-03-06T02:30:00Z,26.2168,-96.4998,1025.5,11111222 
TABS,ioos:station:wmo:42045:1,2012-03-06T03:00:00Z,26.2168,-96.4998,1025.7,11111222 
TABS,ioos:station:wmo:42045:1,2012-03-06T13:00:00Z,26.2168,-96.4998,1021.92,11111222 
TABS,ioos:station:wmo:42045:1,2012-03-06T16:00:00Z,26.2168,-96.4998,1022.85,11111222 
TABS,ioos:station:wmo:42045:1,2012-03-06T16:30:00Z,26.2168,-96.4998,1022.76,11111222 
TABS,ioos:station:wmo:42045:1,2012-03-06T17:00:00Z,26.2168,-96.4998,1023.05,11111222 
TABS,ioos:station:wmo:42045:1,2012-03-06T17:30:00Z,26.2168,-96.4998,1022.86,11111222 
TABS,ioos:station:wmo:42045:1,2012-03-06T18:00:00Z,26.2168,-96.4998,1022.25,11111222 
TABS,ioos:station:wmo:42045:1,2012-03-06T18:30:00Z,26.2168,-96.4998,1021.68,11111222 
TABS,ioos:station:wmo:42045:1,2012-03-06T19:00:00Z,26.2168,-96.4998,1021.04,11111222 
TABS,ioos:station:wmo:42045:1,2012-03-06T19:30:00Z,26.2168,-96.4998,1020.08,11111222 
TABS,ioos:station:wmo:42045:1,2012-03-06T20:00:00Z,26.2168,-96.4998,1019.55,11111222 
TABS,ioos:station:wmo:42045:1,2012-03-06T20:30:00Z,26.2168,-96.4998,1019.17,11111222 
TABS,ioos:station:wmo:42045:1,2012-03-06T21:00:00Z,26.2168,-96.4998,1018.88,11111222 
TABS,ioos:station:wmo:42045:1,2012-03-06T21:30:00Z,26.2168,-96.4998,1018.39,11111222 
TABS,ioos:station:wmo:42045:1,2012-03-06T22:00:00Z,26.2168,-96.4998,1018.29,11111222 
TABS,ioos:station:wmo:42045:1,2012-03-06T22:30:00Z,26.2168,-96.4998,1017.9,11111222 
TABS,ioos:station:wmo:42045:1,2012-03-06T23:00:00Z,26.2168,-96.4998,1017.7,11111222 
TABS,ioos:station:wmo:42045:1,2012-03-06T23:30:00Z,26.2168,-96.4998,1017.62,11111222 
TABS,ioos:station:wmo:42045:1,2012-03-07T00:00:00Z,26.2168,-96.4998,1017.71,11111222 
TABS,ioos:station:wmo:42045:1,2012-03-07T00:30:00Z,26.2168,-96.4998,1017.64,11111222 
TABS,ioos:station:wmo:42045:1,2012-03-07T01:00:00Z,26.2168,-96.4998,1017.82,11111222 
TABS,ioos:station:wmo:42045:1,2012-03-07T01:30:00Z,26.2168,-96.4998,1017.97,11111222 
TABS,ioos:station:wmo:42045:1,2012-03-07T02:00:00Z,26.2168,-96.4998,1018.42,11111222 
TABS,ioos:station:wmo:42045:1,2012-03-07T02:30:00Z,26.2168,-96.4998,1018.71,11111222 
TABS,ioos:station:wmo:42045:1,2012-03-07T03:00:00Z,26.2168,-96.4998,1018.74,11111222 
TABS,ioos:station:wmo:42045:1,2012-03-07T03:30:00Z,26.2168,-96.4998,1018.99,11111222 
TABS,ioos:station:wmo:42045:1,2012-03-07T04:00:00Z,26.2168,-96.4998,1018.93,11111222 
TABS,ioos:station:wmo:42045:1,2012-03-07T04:30:00Z,26.2168,-96.4998,1018.73,11111222 
TABS,ioos:station:wmo:42045:1,2012-03-07T15:00:00Z,26.2168,-96.4998,1017.13,11111222 
TABS,ioos:station:wmo:42045:1,2012-03-07T15:30:00Z,26.2168,-96.4998,1017.48,11111222 
TABS,ioos:station:wmo:42045:1,2012-03-07T16:00:00Z,26.2168,-96.4998,1017.39,11111222 
TABS,ioos:station:wmo:42045:1,2012-03-07T16:30:00Z,26.2168,-96.4998,1017.5,11111222 
TABS,ioos:station:wmo:42045:1,2012-03-07T17:00:00Z,26.2168,-96.4998,1017.32,11111222 
TABS,ioos:station:wmo:42045:1,2012-03-07T17:30:00Z,26.2168,-96.4998,1017.09,11111222 
TABS,ioos:station:wmo:42045:1,2012-03-07T18:00:00Z,26.2168,-96.4998,1016.9,11111222 
TABS,ioos:station:wmo:42045:1,2012-03-07T18:30:00Z,26.2168,-96.4998,1016.44,11111222 
TABS,ioos:station:wmo:42045:1,2012-03-07T19:00:00Z,26.2168,-96.4998,1016.09,11111222 
TABS,ioos:station:wmo:42045:1,2012-03-07T19:30:00Z,26.2168,-96.4998,1015.6,11111222 
TABS,ioos:station:wmo:42045:1,2012-03-07T20:00:00Z,26.2168,-96.4998,1015.17,11111222 
TABS,ioos:station:wmo:42045:1,2012-03-07T20:30:00Z,26.2168,-96.4998,1014.47,11111222 
TABS,ioos:station:wmo:42045:1,2012-03-07T21:00:00Z,26.2168,-96.4998,1014.15,11111222 
TABS,ioos:station:wmo:42045:1,2012-03-07T21:30:00Z,26.2168,-96.4998,1013.73,11111222 
TABS,ioos:station:wmo:42045:1,2012-03-07T22:00:00Z,26.2168,-96.4998,1013.52,11111222 
TABS,ioos:station:wmo:42045:1,2012-03-07T22:30:00Z,26.2168,-96.4998,1013.32,11111222 
TABS,ioos:station:wmo:42045:1,2012-03-07T23:00:00Z,26.2168,-96.4998,1013.28,11111222 
TABS,ioos:station:wmo:42045:1,2012-03-07T23:30:00Z,26.2168,-96.4998,1013.18,11111222 
TABS,ioos:station:wmo:42045:1,2012-03-08T00:00:00Z,26.2168,-96.4998,1013.15,11111222 
TABS,ioos:station:wmo:42045:1,2012-03-08T00:30:00Z,26.2168,-96.4998,1013.35,11111222 
TABS,ioos:station:wmo:42045:1,2012-03-08T01:00:00Z,26.2168,-96.4998,1013.35,11111222 
TABS,ioos:station:wmo:42045:1,2012-03-08T01:30:00Z,26.2168,-96.4998,1013.55,11111222 
TABS,ioos:station:wmo:42045:1,2012-03-08T02:00:00Z,26.2168,-96.4998,1013.74,11111222 
TABS,ioos:station:wmo:42045:1,2012-03-08T02:30:00Z,26.2168,-96.4998,1013.91,11111222 
TABS,ioos:station:wmo:42045:1,2012-03-08T03:00:00Z,26.2168,-96.4998,1014.18,11111222 
TABS,ioos:station:wmo:42045:1,2012-03-08T11:00:00Z,26.2168,-96.4998,1013.56,11111222 
TABS,ioos:station:wmo:42045:1,2012-03-08T13:00:00Z,26.2168,-96.4998,1013.19,11111222 
TABS,ioos:station:wmo:42045:1,2012-03-08T13:30:00Z,26.2168,-96.4998,1014.05,11111222 
TABS,ioos:station:wmo:42045:1,2012-03-08T14:00:00Z,26.2168,-96.4998,1014.13,11111222 
TABS,ioos:station:wmo:42045:1,2012-03-08T14:30:00Z,26.2168,-96.4998,1014.6,11111222 
TABS,ioos:station:wmo:42045:1,2012-03-08T15:00:00Z,26.2168,-96.4998,1014.95,11111222 